CT1ETE Weather Reports


time (UTC)temp
C
wind
direction
speed
KPH
gust
KPH
rain 1hr
cm
rain 24hr
cm
rain mn
cm
humidity
%
barometer
mb
20180221225127 10 61 25.7 38.6 0.00 0.00 0.00 57 1011.4
20180221223627 10 68 24.1 38.6 0.00 0.00 0.00 56 1011.6
20180221222127 10 80 25.7 35.4 0.00 0.00 0.00 55 1011.4
20180221220627 11 91 25.7 35.4 0.00 0.00 0.00 54 1011.5
20180221215127 11 61 19.3 30.6 0.00 0.00 0.00 54 1011.5
20180221213627 11 60 16.1 25.7 0.00 0.00 0.00 54 1011.5
20180221212127 11 89 8.0 17.7 0.00 0.00 0.00 52 1011.5
20180221210627 11 120 4.8 9.7 0.00 0.00 0.00 51 1011.6
20180221205124 11 143 1.6 8.0 0.00 0.00 0.00 51 1011.5
20180221203625 11 180 0.0 0.0 0.00 0.00 0.00 50 1011.3
20180221202124 11 180 0.0 0.0 0.00 0.00 0.00 50 1011.3
20180221200622 12 205 0.0 0.0 0.00 0.00 0.00 49 1011.3
20180221195123 12 205 0.0 6.4 0.00 0.00 0.00 48 1011.3
20180221193623 12 154 4.8 11.3 0.00 0.00 0.00 47 1011.3
20180221192121 13 92 8.0 12.9 0.00 0.00 0.00 45 1011.2
20180221190620 13 104 9.7 12.9 0.00 0.00 0.00 44 1011.2
20180221185122 13 88 9.7 14.5 0.00 0.00 0.00 44 1011.1
20180221183620 13 78 8.0 14.5 0.00 0.00 0.00 43 1011.0
20180221182120 13 87 9.7 14.5 0.00 0.00 0.00 42 1011.0
20180221180620 13 117 11.3 17.7 0.00 0.00 0.00 40 1011.0
20180221175120 14 98 9.7 14.5 0.00 0.00 0.00 41 1010.9
20180221173620 14 97 9.7 16.1 0.00 0.00 0.00 39 1010.8
20180221172120 15 86 11.3 16.1 0.00 0.00 0.00 38 1010.8
20180221170618 15 67 8.0 19.3 0.00 0.00 0.00 39 1010.8
20180221165119 15 104 11.3 20.9 0.00 0.00 0.00 38 1010.7
20180221163618 15 84 9.7 17.7 0.00 0.00 0.00 39 1010.8
20180221162118 15 94 6.4 14.5 0.00 0.00 0.00 38 1011.0
20180221160619 15 351 6.4 20.9 0.00 0.00 0.00 38 1010.9
20180221155116 15 88 14.5 22.5 0.00 0.00 0.00 37 1011.0
20180221153616 15 101 11.3 22.5 0.00 0.00 0.00 37 1011.1
20180221152116 15 49 6.4 14.5 0.00 0.00 0.00 40 1011.2
20180221150616 15 86 9.7 17.7 0.00 0.00 0.00 39 1011.3
20180221145116 15 82 9.7 19.3 0.00 0.00 0.00 41 1011.5
20180221143616 15 61 9.7 19.3 0.00 0.00 0.00 42 1011.7
20180221142116 15 56 8.0 17.7 0.00 0.00 0.00 44 1011.9
20180221140616 15 32 9.7 19.3 0.00 0.00 0.00 43 1012.3
20180221135115 15 61 11.3 20.9 0.00 0.00 0.00 44 1012.5
20180221133615 15 42 9.7 22.5 0.00 0.00 0.00 45 1012.6
20180221132114 15 45 11.3 20.9 0.00 0.00 0.00 44 1012.8
20180221130614 14 46 6.4 20.9 0.00 0.00 0.00 44 1013.2
20180221125114 13 69 14.5 25.7 0.00 0.00 0.00 45 1013.3
20180221123613 13 76 17.7 25.7 0.00 0.00 0.00 47 1013.5
20180221122114 13 92 12.9 20.9 0.00 0.00 0.00 49 1013.8
20180221120614 13 73 14.5 25.7 0.00 0.00 0.00 50 1014.0
20180221115114 13 49 17.7 32.2 0.00 0.00 0.00 50 1014.3
20180221113613 12 264 22.5 35.4 0.00 0.00 0.00 51 1014.3
20180221112113 12 86 17.7 37.0 0.00 0.00 0.00 52 1014.4
20180221110614 12 49 25.7 43.5 0.00 0.00 0.00 53 1014.4
20180221105113 12 61 20.9 35.4 0.00 0.00 0.00 52 1014.4
20180221103614 11 89 22.5 35.4 0.00 0.00 0.00 52 1014.5
20180221102114 11 77 22.5 35.4 0.00 0.00 0.00 54 1014.4
20180221100615 10 59 12.9 25.7 0.00 0.00 0.00 56 1014.4
20180221095113 10 71 8.0 19.3 0.00 0.00 0.00 56 1014.5
20180221093621 10 97 11.3 19.3 0.00 0.00 0.00 58 1014.5
20180221092111 10 92 11.3 17.7 0.00 0.00 0.00 59 1014.6
20180221090611 9 108 11.3 19.3 0.00 0.00 0.00 58 1014.5
20180221085111 8 74 11.3 16.1 0.00 0.00 0.00 61 1014.5
20180221083611 8 61 12.9 20.9 0.00 0.00 0.00 59 1014.5
20180221082111 8 109 9.7 16.1 0.00 0.00 0.00 63 1014.2
20180221080612 7 98 11.3 16.1 0.00 0.00 0.00 66 1014.2
20180221075111 7 71 8.0 12.9 0.00 0.00 0.00 68 1014.0
20180221073609 7 95 9.7 19.3 0.00 0.00 0.00 68 1014.1
20180221072109 7 79 12.9 20.9 0.00 0.00 0.00 68 1014.3
20180221070611 7 65 9.7 20.9 0.00 0.00 0.00 70 1014.3
20180221065110 6 101 11.3 17.7 0.00 0.00 0.00 76 1014.4
20180221063609 6 96 4.8 9.7 0.00 0.00 0.00 75 1014.4
20180221062109 7 121 3.2 11.3 0.00 0.00 0.00 73 1014.4
20180221060609 7 166 3.2 8.0 0.00 0.00 0.00 73 1014.6
20180221055109 7 184 4.8 8.0 0.00 0.00 0.00 73 1014.8
20180221053609 8 154 3.2 8.0 0.00 0.00 0.00 68 1014.8
20180221052109 8 119 6.4 12.9 0.00 0.00 0.00 69 1015.0
20180221050608 8 92 8.0 14.5 0.00 0.00 0.00 70 1015.0
20180221045105 8 97 0.0 11.3 0.00 0.00 0.00 70 1015.0
20180221043605 8 116 0.0 0.0 0.00 0.00 0.00 71 1015.0
20180221042235 10 58 11.3 20.9 0.00 0.00 0.00 66 1017.4
20180221042227 10 72 6.4 14.5 0.00 0.00 0.00 66 1017.2
20180221042218 10 92 11.3 14.5 0.00 0.00 0.00 67 1016.9
20180221042210 10 59 6.4 14.5 0.00 0.00 0.00 66 1016.7
20180221042201 10 58 11.3 17.7 0.00 0.00 0.00 65 1016.5
20180221042152 10 61 4.8 9.7 0.00 0.00 0.00 66 1016.3
20180221042144 8 35 0.0 4.8 0.00 0.00 0.00 70 1016.2
20180221042122 8 113 4.8 9.7 0.00 0.00 0.00 70 1015.8
20180221042113 8 112 6.4 9.7 0.00 0.00 0.00 69 1015.5
20180221042105 8 92 0.0 4.8 0.00 0.00 0.00 69 1015.2
20180221015103 10 71 11.3 29.0 0.00 0.00 0.00 67 1017.6
20180221013603 10 79 9.7 24.1 0.00 0.00 0.00 67 1017.7
20180221012103 10 40 11.3 22.5 0.00 0.00 0.00 66 1017.9
20180221010603 11 93 17.7 30.6 0.00 0.00 0.00 64 1017.9
20180221005103 11 77 17.7 32.2 0.00 0.00 0.00 63 1018.0
20180221003603 11 50 22.5 35.4 0.00 0.00 0.00 61 1018.3
20180221002103 11 76 19.3 30.6 0.00 0.00 0.00 62 1018.5
20180221000603 11 46 17.7 30.6 0.00 0.00 0.00 62 1018.7
20180220235103 11 79 20.9 30.6 0.00 0.00 0.00 61 1018.8
20180220233603 11 80 20.9 30.6 0.00 0.00 0.00 64 1018.8
20180220232103 11 59 19.3 29.0 0.00 0.00 0.00 66 1019.0
20180220230603 11 74 20.9 29.0 0.00 0.00 0.00 64 1018.9